| time (UTC) | temp C | wind direction | speed KPH | gust KPH | rain 1hr cm | rain 24hr cm | rain mn cm | humidity % | barometer mb |
| 20260902173041 | 34 | 258 | 0.0 | 3.2 | 0.00 | 0.00 | 0.00 | 55 | 1017.0 |
| 20260902171553 | 33 | 155 | 0.0 | 6.4 | 0.00 | 0.00 | 0.00 | 59 | 1017.3 |
| 20260902170035 | 33 | 224 | 0.0 | 3.2 | 0.00 | 0.00 | 0.00 | 59 | 1017.4 |
| 20260902164532 | 33 | 81 | 0.0 | 1.6 | 0.00 | 0.00 | 0.00 | 61 | 1017.6 |
| 20260902163030 | 32 | 172 | 0.0 | 3.2 | 0.00 | 0.00 | 0.00 | 63 | 1017.9 |
| 20260902161534 | 32 | 58 | 0.0 | 4.8 | 0.00 | 0.00 | 0.00 | 65 | 1018.1 |
| 20260902160024 | 32 | 167 | 0.0 | 0.0 | 0.00 | 0.00 | 0.00 | 66 | 1018.2 |
| 20260902154519 | 31 | 307 | 0.0 | 3.2 | 0.00 | 0.00 | 0.00 | 70 | 1018.3 |
| 20260902153021 | 30 | 254 | 0.0 | 4.8 | 0.00 | 0.00 | 0.00 | 72 | 1018.5 |
| 20260902151516 | 30 | 246 | 1.6 | 4.8 | 0.00 | 0.00 | 0.00 | 73 | 1018.5 |
| 20260902150012 | 30 | 215 | 0.0 | 3.2 | 0.00 | 0.00 | 0.00 | 76 | 1018.4 |
| 20260902144510 | 29 | 283 | 1.6 | 6.4 | 0.00 | 0.00 | 0.00 | 76 | 1018.4 |
| 20260902143008 | 28 | 234 | 1.6 | 4.8 | 0.00 | 0.00 | 0.00 | 77 | 1018.4 |
| 20260902141504 | 28 | 237 | 0.0 | 8.0 | 0.00 | 0.00 | 0.00 | 79 | 1018.4 |
| 20260902140003 | 28 | 270 | 1.6 | 4.8 | 0.00 | 0.00 | 0.00 | 79 | 1018.3 |
| 20260902134615 | 27 | 233 | 0.0 | 3.2 | 0.00 | 0.00 | 0.00 | 82 | 1018.4 |
| 20260902133057 | 27 | 222 | 0.0 | 3.2 | 0.00 | 0.00 | 0.00 | 84 | 1018.5 |
| 20260902131552 | 27 | 182 | 0.0 | 0.0 | 0.00 | 0.00 | 0.00 | 91 | 1018.5 |
| 20260902130048 | 26 | 182 | 0.0 | 0.0 | 0.00 | 0.00 | 0.00 | 95 | 1018.5 |
| 20260902124545 | 25 | 182 | 0.0 | 0.0 | 0.00 | 0.00 | 0.00 | 97 | 1018.5 |
| 20260902123042 | 23 | 182 | 0.0 | 0.0 | 0.00 | 0.00 | 0.00 | 99 | 1018.4 |
| 20260902121540 | 23 | 182 | 0.0 | 0.0 | 0.00 | 0.00 | 0.00 | 99 | 1018.3 |
| 20260902120035 | 21 | 182 | 0.0 | 0.0 | 0.00 | 0.00 | 0.00 | 99 | 1018.1 |
| 20260902114536 | 21 | 182 | 0.0 | 1.6 | 0.00 | 0.00 | 0.00 | 99 | 1017.8 |
| 20260902113034 | 21 | 182 | 0.0 | 0.0 | 0.00 | 0.00 | 0.00 | 98 | 1017.7 |
| 20260902111529 | 21 | 182 | 0.0 | 0.0 | 0.00 | 0.00 | 0.00 | 98 | 1017.5 |
| 20260902110029 | 21 | 182 | 0.0 | 0.0 | 0.00 | 0.00 | 0.00 | 98 | 1017.4 |
| 20260902104533 | 21 | 182 | 0.0 | 0.0 | 0.00 | 0.00 | 0.00 | 98 | 1017.2 |
| 20260902103027 | 21 | 182 | 0.0 | 0.0 | 0.00 | 0.00 | 0.00 | 98 | 1017.1 |
| 20260902101522 | 21 | 182 | 0.0 | 0.0 | 0.00 | 0.00 | 0.00 | 98 | 1016.9 |
| 20260902100020 | 21 | 182 | 0.0 | 0.0 | 0.00 | 0.00 | 0.00 | 98 | 1016.9 |
| 20260902094520 | 21 | 182 | 0.0 | 0.0 | 0.00 | 0.00 | 0.00 | 98 | 1016.8 |
| 20260902093020 | 21 | 182 | 0.0 | 0.0 | 0.00 | 0.00 | 0.00 | 98 | 1016.8 |
| 20260902091517 | 21 | 182 | 0.0 | 0.0 | 0.00 | 0.00 | 0.00 | 97 | 1016.8 |
| 20260902090017 | 21 | 182 | 0.0 | 0.0 | 0.00 | 0.00 | 0.00 | 98 | 1016.7 |
| 20260902084519 | 21 | 182 | 0.0 | 0.0 | 0.00 | 0.00 | 0.00 | 97 | 1016.5 |
| 20260902083015 | 21 | 182 | 0.0 | 0.0 | 0.00 | 0.00 | 0.00 | 98 | 1016.3 |
| 20260902081513 | 21 | 182 | 0.0 | 0.0 | 0.00 | 0.00 | 0.00 | 97 | 1016.2 |
| 20260902080011 | 22 | 182 | 0.0 | 0.0 | 0.00 | 0.00 | 0.00 | 97 | 1016.2 |
| 20260902074510 | 22 | 182 | 0.0 | 0.0 | 0.00 | 0.00 | 0.00 | 97 | 1016.2 |
| 20260902073009 | 22 | 182 | 0.0 | 0.0 | 0.00 | 0.00 | 0.00 | 97 | 1016.3 |
| 20260902071514 | 22 | 197 | 0.0 | 0.0 | 0.00 | 0.00 | 0.00 | 97 | 1016.4 |
| 20260902070007 | 22 | 197 | 0.0 | 0.0 | 0.00 | 0.00 | 0.00 | 96 | 1016.6 |
| 20260902064520 | 22 | 198 | 0.0 | 0.0 | 0.00 | 0.00 | 0.00 | 97 | 1016.5 |
| 20260902063007 | 22 | 198 | 0.0 | 0.0 | 0.00 | 0.00 | 0.00 | 96 | 1016.4 |
| 20260902061502 | 22 | 198 | 0.0 | 0.0 | 0.00 | 0.00 | 0.00 | 96 | 1016.5 |
| 20260902060001 | 22 | 198 | 0.0 | 0.0 | 0.00 | 0.00 | 0.00 | 96 | 1016.5 |
| 20260902054504 | 22 | 198 | 0.0 | 0.0 | 0.00 | 0.00 | 0.00 | 95 | 1016.4 |
| 20260902053100 | 22 | 198 | 0.0 | 0.0 | 0.00 | 0.00 | 0.00 | 95 | 1016.4 |
| 20260902051600 | 22 | 198 | 0.0 | 0.0 | 0.00 | 0.00 | 0.00 | 94 | 1016.3 |
| 20260902050057 | 22 | 198 | 0.0 | 0.0 | 0.00 | 0.00 | 0.00 | 94 | 1016.3 |
| 20260902044555 | 22 | 198 | 0.0 | 0.0 | 0.00 | 0.00 | 0.00 | 94 | 1016.4 |
| 20260902043107 | 23 | 198 | 0.0 | 0.0 | 0.00 | 0.00 | 0.00 | 94 | 1016.5 |
| 20260902041602 | 23 | 198 | 0.0 | 0.0 | 0.00 | 0.00 | 0.00 | 93 | 1016.5 |
| 20260902040044 | 23 | 198 | 0.0 | 0.0 | 0.00 | 0.00 | 0.00 | 93 | 1016.5 |
| 20260902034549 | 23 | 198 | 0.0 | 0.0 | 0.00 | 0.00 | 0.00 | 93 | 1016.3 |
| 20260902033049 | 23 | 198 | 0.0 | 0.0 | 0.00 | 0.00 | 0.00 | 93 | 1016.3 |
| 20260902031542 | 23 | 198 | 0.0 | 0.0 | 0.00 | 0.00 | 0.00 | 92 | 1016.5 |
| 20260902030045 | 23 | 198 | 0.0 | 0.0 | 0.00 | 0.00 | 0.00 | 91 | 1016.4 |
| 20260902024542 | 24 | 198 | 0.0 | 0.0 | 0.00 | 0.00 | 0.00 | 91 | 1016.3 |
| 20260902023041 | 24 | 198 | 0.0 | 0.0 | 0.00 | 0.00 | 0.00 | 91 | 1016.3 |
| 20260902021540 | 24 | 198 | 0.0 | 0.0 | 0.00 | 0.00 | 0.00 | 90 | 1016.2 |
| 20260902020043 | 25 | 198 | 0.0 | 0.0 | 0.00 | 0.00 | 0.00 | 89 | 1016.2 |
| 20260902014548 | 25 | 198 | 0.0 | 0.0 | 0.00 | 0.00 | 0.00 | 88 | 1016.1 |
| 20260902013050 | 25 | 198 | 0.0 | 0.0 | 0.00 | 0.00 | 0.00 | 87 | 1016.0 |
| 20260902011538 | 25 | 198 | 0.0 | 0.0 | 0.00 | 0.00 | 0.00 | 86 | 1015.9 |
| 20260902010048 | 26 | 198 | 0.0 | 0.0 | 0.00 | 0.00 | 0.00 | 85 | 1015.8 |
| 20260902004538 | 26 | 198 | 0.0 | 0.0 | 0.00 | 0.00 | 0.00 | 84 | 1015.7 |
| 20260902003111 | 27 | 198 | 0.0 | 0.0 | 0.00 | 0.00 | 0.00 | 81 | 1015.6 |
| 20260902001537 | 27 | 198 | 0.0 | 0.0 | 0.00 | 0.00 | 0.00 | 78 | 1015.7 |
| 20260902000037 | 28 | 198 | 0.0 | 0.0 | 0.00 | 0.00 | 0.00 | 77 | 1015.7 |
| 20260901234538 | 29 | 203 | 0.0 | 0.0 | 0.00 | 0.00 | 0.00 | 74 | 1015.8 |
| 20260901233037 | 30 | 224 | 0.0 | 0.0 | 0.00 | 0.00 | 0.00 | 72 | 1015.8 |
| 20260901231540 | 30 | 224 | 0.0 | 0.0 | 0.00 | 0.00 | 0.00 | 68 | 1015.8 |
| 20260901230033 | 31 | 225 | 0.0 | 0.0 | 0.00 | 0.00 | 0.00 | 66 | 1015.8 |
| 20260901224532 | 31 | 229 | 0.0 | 3.2 | 0.00 | 0.00 | 0.00 | 63 | 1015.9 |
| 20260901223032 | 31 | 274 | 3.2 | 4.8 | 0.00 | 0.00 | 0.00 | 62 | 1015.7 |
| 20260901221538 | 32 | 236 | 0.0 | 6.4 | 0.00 | 0.00 | 0.00 | 61 | 1015.7 |
| 20260901220037 | 32 | 183 | 3.2 | 8.0 | 0.00 | 0.00 | 0.00 | 59 | 1015.7 |
| 20260901214529 | 32 | 207 | 0.0 | 4.8 | 0.00 | 0.00 | 0.00 | 59 | 1015.7 |
| 20260901213028 | 32 | 172 | 0.0 | 0.0 | 0.00 | 0.00 | 0.00 | 57 | 1015.8 |
| 20260901211527 | 33 | 123 | 0.0 | 0.0 | 0.00 | 0.00 | 0.00 | 56 | 1015.8 |
| 20260901210026 | 33 | 127 | 0.0 | 1.6 | 0.00 | 0.00 | 0.00 | 56 | 1016.0 |
| 20260901204527 | 32 | 56 | 0.0 | 3.2 | 0.00 | 0.00 | 0.00 | 60 | 1016.1 |
| 20260901203023 | 32 | 243 | 0.0 | 3.2 | 0.00 | 0.00 | 0.00 | 63 | 1016.3 |
| 20260901201521 | 33 | 167 | 0.0 | 0.0 | 0.00 | 0.00 | 0.00 | 61 | 1016.4 |
| 20260901200020 | 33 | 169 | 0.0 | 3.2 | 0.00 | 0.00 | 0.00 | 61 | 1016.5 |
| 20260901194518 | 32 | 191 | 0.0 | 0.0 | 0.00 | 0.00 | 0.00 | 69 | 1016.6 |
| 20260901193017 | 31 | 191 | 0.0 | 0.0 | 0.00 | 0.00 | 0.00 | 70 | 1016.7 |
| 20260901191514 | 32 | 196 | 0.0 | 0.0 | 0.00 | 0.00 | 0.00 | 65 | 1016.9 |
| 20260901190016 | 33 | 196 | 0.0 | 3.2 | 0.00 | 0.00 | 0.00 | 62 | 1017.1 |
| 20260901184512 | 34 | 248 | 1.6 | 8.0 | 0.00 | 0.00 | 0.00 | 56 | 1017.1 |
| 20260901183010 | 34 | 266 | 0.0 | 6.4 | 0.00 | 0.00 | 0.00 | 58 | 1017.2 |
| 20260901181511 | 34 | 60 | 0.0 | 6.4 | 0.00 | 0.00 | 0.00 | 57 | 1017.4 |
| 20260901180008 | 34 | 60 | 1.6 | 6.4 | 0.00 | 0.64 | 0.00 | 55 | 1017.5 |
| 20260901174507 | 34 | 221 | 3.2 | 6.4 | 0.00 | 0.64 | 0.00 | 56 | 1017.5 |